STARLINK-34653

Last updated on Tue Aug 26 2025 00:02:05 GMT+0000 (Coordinated Universal Time)

1 64917U 25157P 25237.25024950 .00066039 00000+0 11849-2 0 9991 2 64917 53.1602 189.0703 0001384 75.1854 284.9308 15.49321377 5843
UTC large
Height (km)
Speed (km/s)
/
Latitude / Longitude
Inclination (degrees)
Orbital Period (minutes)
Azimuth
Elevation
Range (km)
Doppler Factor

Next 0 passes for location: London (51.5072 / 0.1276)

Sorry there are no passes over London.